Погода в Холбоне

Россия / Забайкальский край     51°54′09″N   116°14′38″E
темп.,
°C
ветер,
м/с
пор.,
м/с
влажн.,
%
обл.,
%
осадки,
мм/ч
давл.,
гПа
погр.,
м
1 марта, пн
пн100:00−25зюз228133 0.0 103920
03:00−27юз228423 0.0 104019
06:00−29юз22820 0.0 103819
09:00−27юз128348 0.0 103819
12:00−21зюз247998 0.0 1035297
15:00−18зюз468298 0.0 1030468
18:00−19ююз2389100 0.0 102861
21:00−21ю129299 0.0 102920
2 марта, вт
вт200:00−21ю1294100 0.1 102720
03:00−25юз119697 0.1 102620
06:00−27ююз11100100 0.0 102419
09:00−26ю0010099 0.0 102319
12:00−21св019194 0.0 1021243
15:00−17ссз018797 0.0 1017300
18:00−17зюз1292100 0.0 1015169
21:00−18ю2298100 0.2 1017103
3 марта, ср
ср300:00−22юз129976 0.1 101620
03:00−24юз1210077 0.1 101620
06:00−25зюз11100100 0.0 101520
09:00−24зюз1110094 0.0 101520
12:00−18з119093 0.0 1012265
15:00−14зсз018696 0.0 1010324
18:00−15всв2296100 0.0 100944
21:00−18вюв1198100 0.3 101224
4 марта, чт
чт400:00−18с1297100 0.3 101220
03:00−22ссз1210099 0.3 101420
06:00−24сз119893 0.0 101720
09:00−23сз229296 0.0 102225
12:00−19с477828 0.0 1024592
15:00−17с466914 0.0 10261186
18:00−19с377692 0.0 1029174
21:00−25ссв227346 0.0 103420
5 марта, пт
пт500:00−29сз11730 0.0 103819
03:00−30сз11730 0.0 104019
06:00−30сз017687 0.0 104319
09:00−30зюз117886 0.0 104619
12:00−23зюз12770 0.0 1044289
15:00−19зюз23760 0.0 1041380
18:00−20юз23860 0.0 104088
21:00−26ююз22910 0.0 104220